• In Belarus
  • List of Countries
  • For 7 days
  • Water Temperature
  • Satellite Maps
  • Weather Map
  • Weather Widgets
  • user-avatar
    Login

    Hourly Weather Kalush

    Today, 23 October, Monday

    Time Temperature Precipitation Wind Pressure Humidity
    00:00 +7°C° 0 mm 3 mps 732 mmHg 90%
    01:00 +7°C° 0 mm 3 mps 732 mmHg 90%
    02:00 +7°C° 0 mm 3 mps 731 mmHg 89%
    03:00 +7°C° 0.2 mm 3 mps 731 mmHg 89%
    04:00 +7°C° 0.2 mm 3 mps 731 mmHg 89%
    05:00 +7°C° 0.2 mm 3 mps 730 mmHg 90%
    06:00 +7°C° 0.2 mm 3 mps 730 mmHg 90%
    07:00 +7°C° 0.2 mm 3 mps 730 mmHg 89%
    08:00 +7°C° 0 mm 3 mps 729 mmHg 90%
    09:00 +8°C° 0.5 mm 3 mps 729 mmHg 89%
    10:00 +8°C° 0.5 mm 3 mps 729 mmHg 89%
    11:00 +8°C° 0.5 mm 3 mps 729 mmHg 88%
    12:00 +8°C° 0.7 mm 3 mps 729 mmHg 88%
    13:00 +9°C° 0.7 mm 3 mps 729 mmHg 89%
    14:00 +9°C° 0.7 mm 3 mps 729 mmHg 89%
    15:00 +9°C° 0.4 mm 3 mps 729 mmHg 91%
    16:00 +9°C° 0.4 mm 3 mps 729 mmHg 92%
    17:00 +9°C° 0.4 mm 2 mps 729 mmHg 93%
    18:00 +9°C° 0.3 mm 3 mps 729 mmHg 94%
    19:00 +9°C° 0.3 mm 3 mps 730 mmHg 94%
    20:00 +8°C° 0.3 mm 3 mps 730 mmHg 95%
    21:00 +8°C° 0.3 mm 3 mps 730 mmHg 94%
    22:00 +8°C° 0.3 mm 3 mps 731 mmHg 94%
    23:00 +8°C° 0.3 mm 3 mps 731 mmHg 94%

    Tomorrow, 24 October, Tuesday

    Time Temperature Precipitation Wind Pressure Humidity
    00:00 +8°C° 0.5 mm 3 mps 731 mmHg 94%
    01:00 +8°C° 0.5 mm 3 mps 732 mmHg 94%
    02:00 +7°C° 0.5 mm 3 mps 732 mmHg 94%
    03:00 +7°C° 0.3 mm 3 mps 733 mmHg 93%
    04:00 +6°C° 0.3 mm 4 mps 733 mmHg 93%
    05:00 +6°C° 0.3 mm 4 mps 733 mmHg 93%
    06:00 +6°C° 0.2 mm 4 mps 734 mmHg 92%
    07:00 +5°C° 0.2 mm 4 mps 735 mmHg 92%
    08:00 +5°C° 0.2 mm 4 mps 735 mmHg 91%
    09:00 +5°C° 0.2 mm 4 mps 736 mmHg 91%
    10:00 +5°C° 0.2 mm 4 mps 736 mmHg 90%
    11:00 +5°C° 0.2 mm 4 mps 737 mmHg 89%
    12:00 +5°C° 0.1 mm 4 mps 737 mmHg 87%
    13:00 +5°C° 0.1 mm 3 mps 738 mmHg 86%
    14:00 +5°C° 0.1 mm 3 mps 738 mmHg 84%
    15:00 +5°C° 0 mm 3 mps 738 mmHg 84%
    16:00 +5°C° 0 mm 3 mps 739 mmHg 84%
    17:00 +6°C° 0 mm 2 mps 739 mmHg 84%
    18:00 +5°C° 0 mm 2 mps 739 mmHg 85%
    19:00 +5°C° 0 mm 2 mps 740 mmHg 86%
    20:00 +5°C° 0 mm 2 mps 740 mmHg 87%
    21:00 +4°C° 0 mm 2 mps 741 mmHg 88%
    22:00 +4°C° 0 mm 2 mps 741 mmHg 88%
    23:00 +3°C° 0 mm 2 mps 742 mmHg 88%

    Day after tomorrow, 25 October, Wednesday

    Time Temperature Precipitation Wind Pressure Humidity
    00:00 +3°C° 0 mm 2 mps 742 mmHg 89%
    01:00 +2°C° 0 mm 2 mps 742 mmHg 89%
    02:00 +2°C° 0 mm 2 mps 742 mmHg 90%
    03:00 +2°C° 0 mm 2 mps 742 mmHg 90%
    04:00 +2°C° 0 mm 2 mps 742 mmHg 90%
    05:00 +1°C° 0 mm 2 mps 742 mmHg 90%
    06:00 +2°C° 0 mm 2 mps 742 mmHg 89%
    07:00 +2°C° 0 mm 2 mps 742 mmHg 88%
    08:00 +2°C° 0 mm 2 mps 743 mmHg 87%
    09:00 +4°C° 0 mm 2 mps 743 mmHg 81%
    10:00 +4°C° 0 mm 3 mps 743 mmHg 74%
    11:00 +7°C° 0 mm 3 mps 743 mmHg 68%
    12:00 +8°C° 0 mm 3 mps 742 mmHg 65%
    13:00 +9°C° 0 mm 3 mps 742 mmHg 63%
    14:00 +10°C° 0 mm 3 mps 742 mmHg 60%
    15:00 +9°C° 0 mm 3 mps 741 mmHg 64%
    16:00 +8°C° 0 mm 3 mps 741 mmHg 69%
    17:00 +7°C° 0 mm 3 mps 741 mmHg 73%
    18:00 +7°C° 0 mm 3 mps 741 mmHg 74%
    19:00 +7°C° 0 mm 3 mps 741 mmHg 75%
    20:00 +7°C° 0 mm 3 mps 741 mmHg 76%
    21:00 +7°C° 0 mm 3 mps 741 mmHg 77%
    22:00 +7°C° 0 mm 2 mps 741 mmHg 77%
    23:00 +7°C° 0 mm 2 mps 741 mmHg 78%

    26 October, Thursday

    Time Temperature Precipitation Wind Pressure Humidity
    00:00 +7°C° 0 mm 2 mps 741 mmHg 77%
    01:00 +7°C° 0 mm 2 mps 741 mmHg 76%
    02:00 +8°C° 0 mm 2 mps 741 mmHg 75%
    03:00 +8°C° 0 mm 2 mps 741 mmHg 74%
    04:00 +8°C° 0 mm 3 mps 741 mmHg 73%
    05:00 +8°C° 0 mm 3 mps 741 mmHg 72%
    06:00 +8°C° 0.1 mm 3 mps 741 mmHg 73%
    07:00 +9°C° 0.1 mm 3 mps 741 mmHg 73%
    08:00 +9°C° 0.1 mm 3 mps 741 mmHg 74%
    09:00 +9°C° 0 mm 3 mps 741 mmHg 73%
    10:00 +10°C° 0 mm 3 mps 741 mmHg 73%
    11:00 +10°C° 0 mm 3 mps 741 mmHg 73%
    12:00 +11°C° 0 mm 3 mps 741 mmHg 71%
    13:00 +12°C° 0 mm 3 mps 740 mmHg 69%
    14:00 +13°C° 0 mm 4 mps 740 mmHg 67%
    15:00 +12°C° 0 mm 3 mps 740 mmHg 70%
    16:00 +12°C° 0 mm 3 mps 740 mmHg 73%
    17:00 +12°C° 0 mm 2 mps 740 mmHg 76%
    18:00 +11°C° 0 mm 3 mps 740 mmHg 77%
    19:00 +11°C° 0 mm 3 mps 739 mmHg 77%
    20:00 +11°C° 0 mm 3 mps 739 mmHg 78%
    21:00 +11°C° 0 mm 3 mps 739 mmHg 79%
    22:00 +11°C° 0 mm 3 mps 739 mmHg 79%
    23:00 +11°C° 0 mm 4 mps 738 mmHg 79%

    27 October, Friday

    Time Temperature Precipitation Wind Pressure Humidity
    00:00 +11°C° 0.2 mm 4 mps 738 mmHg 80%
    01:00 +11°C° 0.2 mm 4 mps 737 mmHg 80%
    02:00 +11°C° 0.2 mm 4 mps 737 mmHg 81%
    03:00 +11°C° 0.5 mm 4 mps 736 mmHg 81%
    04:00 +11°C° 0.5 mm 4 mps 736 mmHg 82%
    05:00 +11°C° 0.5 mm 4 mps 735 mmHg 82%
    06:00 +11°C° 0.7 mm 3 mps 735 mmHg 84%
    07:00 +11°C° 0.7 mm 3 mps 735 mmHg 87%
    08:00 +12°C° 0.7 mm 2 mps 734 mmHg 89%
    09:00 +11°C° 0.3 mm 3 mps 734 mmHg 87%
    10:00 +12°C° 0.3 mm 3 mps 733 mmHg 85%
    11:00 +12°C° 0.3 mm 3 mps 733 mmHg 83%
    12:00 +12°C° 1.4 mm 3 mps 732 mmHg 84%
    13:00 +12°C° 1.4 mm 3 mps 732 mmHg 86%
    14:00 +11°C° 1.4 mm 3 mps 731 mmHg 87%
    15:00 +11°C° 2.3 mm 3 mps 731 mmHg 90%
    16:00 +10°C° 2.3 mm 3 mps 730 mmHg 92%
    17:00 +10°C° 2.3 mm 3 mps 730 mmHg 95%
    18:00 +10°C° 1.3 mm 3 mps 730 mmHg 94%
    19:00 +9°C° 1.3 mm 3 mps 730 mmHg 93%
    20:00 +9°C° 1.3 mm 3 mps 729 mmHg 92%
    21:00 +9°C° 0.8 mm 3 mps 729 mmHg 91%
    22:00 +8°C° 0.8 mm 3 mps 729 mmHg 89%
    23:00 +7°C° 0.8 mm 4 mps 729 mmHg 88%

    28 October, Saturday

    Time Temperature Precipitation Wind Pressure Humidity
    00:00 +7°C° 0.2 mm 4 mps 729 mmHg 89%
    01:00 +6°C° 0.2 mm 4 mps 729 mmHg 90%
    02:00 +6°C° 0.2 mm 4 mps 729 mmHg 91%
    03:00 +6°C° 0.2 mm 4 mps 729 mmHg 90%
    04:00 +6°C° 0.2 mm 4 mps 729 mmHg 90%
    05:00 +5°C° 0.2 mm 4 mps 728 mmHg 90%
    06:00 +6°C° 0.5 mm 4 mps 729 mmHg 88%
    07:00 +6°C° 0.5 mm 5 mps 729 mmHg 87%
    08:00 +5°C° 0.5 mm 6 mps 729 mmHg 86%
    09:00 +5°C° 0.2 mm 6 mps 729 mmHg 83%
    10:00 +7°C° 0.2 mm 6 mps 729 mmHg 79%
    11:00 +7°C° 0.2 mm 6 mps 730 mmHg 76%
    12:00 +7°C° 0.3 mm 6 mps 730 mmHg 75%
    13:00 +7°C° 0.3 mm 6 mps 730 mmHg 73%
    14:00 +7°C° 0.3 mm 6 mps 730 mmHg 72%
    15:00 +7°C° 0.1 mm 5 mps 730 mmHg 74%
    16:00 +6°C° 0.1 mm 4 mps 730 mmHg 77%
    17:00 +5°C° 0.1 mm 3 mps 730 mmHg 79%
    18:00 +5°C° 0.1 mm 3 mps 730 mmHg 81%
    19:00 +5°C° 0.1 mm 3 mps 730 mmHg 84%
    20:00 +4°C° 0.1 mm 3 mps 730 mmHg 86%
    21:00 +4°C° 0.1 mm 3 mps 730 mmHg 86%
    22:00 +4°C° 0.1 mm 3 mps 730 mmHg 86%
    23:00 +4°C° 0.1 mm 3 mps 730 mmHg 86%

    29 October, Sunday

    Time Temperature Precipitation Wind Pressure Humidity
    00:00 +4°C° 0.4 mm 3 mps 729 mmHg 85%
    01:00 +5°C° 0.4 mm 4 mps 729 mmHg 84%
    02:00 +5°C° 0.4 mm 4 mps 729 mmHg 83%
    03:00 +5°C° 0.3 mm 4 mps 728 mmHg 84%
    04:00 +5°C° 0.3 mm 4 mps 728 mmHg 84%
    05:00 +5°C° 0.3 mm 3 mps 728 mmHg 85%
    06:00 +5°C° 0.8 mm 3 mps 728 mmHg 86%
    07:00 +5°C° 0.8 mm 3 mps 728 mmHg 87%
    08:00 +6°C° 0.8 mm 2 mps 728 mmHg 89%
    09:00 +5°C° 0.6 mm 3 mps 728 mmHg 88%
    10:00 +5°C° 0.6 mm 3 mps 729 mmHg 87%
    11:00 +5°C° 0.6 mm 3 mps 729 mmHg 87%
    12:00 +7°C° 0.2 mm 3 mps 729 mmHg 84%
    13:00 +7°C° 0.2 mm 3 mps 729 mmHg 81%
    14:00 +8°C° 0.2 mm 3 mps 730 mmHg 78%
    15:00 +7°C° 0.1 mm 3 mps 730 mmHg 81%
    16:00 +5°C° 0.1 mm 3 mps 730 mmHg 84%
    17:00 +6°C° 0.1 mm 2 mps 730 mmHg 87%
    18:00 +5°C° 0 mm 2 mps 730 mmHg 89%
    19:00 +5°C° 0 mm 2 mps 731 mmHg 91%
    20:00 +4°C° 0 mm 3 mps 731 mmHg 92%
    21:00 +4°C° 0 mm 2 mps 731 mmHg 92%
    22:00 +4°C° 0 mm 2 mps 731 mmHg 91%
    23:00 +4°C° 0 mm 2 mps 731 mmHg 90%
    Show more